Tracking 20942 objects as of 11-Jul-2020
HD Live streaming from Space Station
objects crossing your sky now

CZ-3B DEB

Track CZ-3B DEB now!


NORAD ID: 40169
Int'l Code: 2010-042W
Perigee: 1,237.8 km
Apogee: 40,347.1 km
Inclination: 27.2 °
Period: 742.6 minutes
Semi major axis: 27163 km
RCS: Unknown
Launch date: September 4, 2010
Source: People's Republic of China (PRC)
Launch site: Xichang Space Center, China (XSC)

Note: This is SATELLITE DEBRIS
aabbcc
Your satellite tracking list
Your tracking list is empty




NASA's NSSDC Master Catalog

Two Line Element Set (TLE):
1 40169U 10042W   20193.03444088 -.00000004  00000-0  00000+0 0  9997
2 40169  27.1836  48.9904 7198875 229.8410 352.9935  1.93921373 55783
Source of the keplerian elements: AFSPC